GW4063 Weather Reports


time (UTC)temp
C
wind
direction
speed
KPH
gust
KPH
rain 1hr
cm
rain 24hr
cm
rain mn
cm
humidity
%
barometer
mb
20260503033026 13 202 12.9 32.2 0.00 0.00 0.00 55 1016.9
20260503031532 13 0 0.0 4.8 0.00 0.00 0.00 51 1016.8
20260503030033 14 0 0.0 4.8 0.00 0.00 0.00 48 1016.6
20260503024535 15 0 0.0 4.8 0.00 0.00 0.00 47 1016.6
20260503023025 15 78 1.6 6.4 0.00 0.00 0.00 45 1016.4
20260503021532 15 88 4.8 11.3 0.00 0.00 0.00 46 1016.4
20260503020027 15 86 6.4 11.3 0.00 0.00 0.00 46 1016.2
20260503014527 16 95 4.8 8.0 0.00 0.00 0.00 45 1016.2
20260503013034 16 97 8.0 14.5 0.00 0.00 0.00 44 1016.3
20260503011528 17 88 8.0 16.1 0.00 0.00 0.00 43 1016.5
20260503010031 17 51 9.7 16.1 0.00 0.00 0.00 44 1016.6
20260503004525 16 55 8.0 14.5 0.00 0.00 0.00 44 1016.4
20260503003036 17 92 1.6 9.7 0.00 0.00 0.00 42 1017.0
20260503001529 17 0 0.0 6.4 0.00 0.00 0.00 43 1017.1
20260503000028 17 46 3.2 9.7 0.00 0.00 0.00 43 1017.2
20260502234533 17 291 1.6 12.9 0.00 0.00 0.00 40 1017.2
20260502233027 17 20 4.8 11.3 0.00 0.00 0.00 41 1017.3
20260502231528 17 202 8.0 12.9 0.00 0.00 0.00 40 1017.5
20260502230032 17 241 9.7 22.5 0.00 0.00 0.00 40 1017.6
20260502224530 18 226 9.7 17.7 0.00 0.00 0.00 40 1017.9
20260502223028 18 115 4.8 16.1 0.00 0.00 0.00 40 1018.1
20260502221528 17 32 4.8 20.9 0.00 0.00 0.00 43 1018.3
20260502220027 17 333 3.2 9.7 0.00 0.00 0.00 44 1018.6
20260502214529 16 321 8.0 24.1 0.00 0.00 0.00 44 1018.7
20260502213037 16 22 4.8 12.9 0.00 0.00 0.00 43 1018.9
20260502211526 16 275 4.8 16.1 0.00 0.00 0.00 43 1019.1
20260502210028 16 263 3.2 12.9 0.00 0.00 0.00 44 1019.4
20260502204526 16 248 4.8 20.9 0.00 0.00 0.00 45 1019.4
20260502203030 16 251 8.0 16.1 0.00 0.00 0.00 45 1019.5
20260502201536 16 193 6.4 16.1 0.00 0.00 0.00 45 1019.6
20260502200027 16 307 9.7 17.7 0.00 0.00 0.00 44 1019.7
20260502194530 16 23 3.2 16.1 0.00 0.00 0.00 45 1019.8
20260502193027 16 313 8.0 19.3 0.00 0.00 0.00 46 1020.0
20260502191529 15 257 14.5 20.9 0.00 0.00 0.00 48 1020.3
20260502190028 15 310 20.9 29.0 0.00 0.00 0.00 49 1020.4
20260502184535 15 14 6.4 17.7 0.00 0.00 0.00 49 1020.5
20260502183030 15 303 17.7 25.7 0.00 0.00 0.00 48 1020.5
20260502181526 15 17 8.0 20.9 0.00 0.00 0.00 47 1020.5
20260502163026 14 352 22.5 38.6 0.00 0.00 0.00 51 1020.4
20260502161531 13 312 29.0 41.8 0.00 0.00 0.00 53 1020.5
20260502151526 12 320 6.4 16.1 0.00 0.00 0.00 55 1020.5
20260502123027 10 37 17.7 24.1 0.00 0.00 0.00 54 1019.7
20260502121530 10 46 17.7 32.2 0.00 0.00 0.00 54 1019.4
20260502114529 10 49 17.7 33.8 0.00 0.00 0.00 54 1018.9
20260502113029 10 86 22.5 35.4 0.00 0.00 0.00 53 1018.8
20260502111526 11 5 24.1 38.6 0.00 0.00 0.00 54 1018.7
20260502110026 11 69 25.7 41.8 0.00 0.00 0.00 53 1018.4
20260502104533 11 103 19.3 35.4 0.00 0.00 0.00 52 1017.9
20260502103027 11 59 29.0 37.0 0.00 0.00 0.00 51 1017.8
20260502101527 11 67 27.4 38.6 0.00 0.00 0.00 50 1017.5
20260502091531 11 30 12.9 25.7 0.00 0.00 0.00 48 1016.8
20260502071530 10 346 9.7 16.1 0.00 0.00 0.00 47 1016.5
20260502070050 10 5 9.7 16.1 0.00 0.00 0.00 46 1016.4
20260502064528 10 264 8.0 16.1 0.00 0.00 0.00 48 1016.5
20260502063032 11 29 11.3 16.1 0.00 0.00 0.00 46 1016.2
20260502061526 11 11 11.3 19.3 0.00 0.00 0.00 45 1016.3
20260502060037 11 19 14.5 20.9 0.00 0.00 0.00 44 1016.3
20260502054540 11 5 16.1 20.9 0.00 0.00 0.00 45 1016.3
20260502053029 11 5 11.3 17.7 0.00 0.00 0.00 44 1016.3
20260502051528 11 11 12.9 17.7 0.00 0.00 0.00 41 1016.4
20260502050028 15 317 16.1 22.5 0.00 0.00 0.00 35 1016.4
20260502044528 13 325 17.7 24.1 0.00 0.00 0.00 38 1016.3
20260502043026 11 311 16.1 19.3 0.00 0.00 0.00 40 1016.3
20260502041551 12 329 11.3 16.1 0.00 0.00 0.00 37 1016.2
20260502040043 13 302 12.9 17.7 0.00 0.00 0.00 36 1016.2
20260502034526 13 320 9.7 14.5 0.00 0.00 0.00 35 1016.1